Location: Ç?ral? Körfezi
(36.3984°N, 30.4829°E)
Time: 09:11:18
(UTC+00:00)

COSMOS 2455 - Pass Details

Date: 04 August 2024
Orbit: 898 x 911 km, 67.2° (Epoch: 15 September)

Event Time Altitude Azimuth Distance (km) Brightness Sun altitude
Rises 19:37:39 0° 326° (NW) 3,546 7.3 -26.4°
Reaches altitude 10° 19:40:15 10° 321° (NW) 2,600 6.2 -26.8°
Maximum altitude 19:45:58 46° 250° (WSW) 1,201 3.5 -27.5°
Enters shadow 19:47:00 42° 222° (SW) 1,270 3.4 -27.6°
